When you browse on this site, cookies collect data to enhance your experience and personalize the content and advertising you see.
Visit our Privacy Policy to learn more. By continuing to use the site, you agree to this use of cookies and data.
  • în România
  • Lista ţărilor
  • Pe 7 zile
  • Temperatura apei
  • Meteo pe hartă
  • Widget-uri
  • user-avatar
    Intrare

    Meteo pe oră la Szeged

    Astăzi, 23 Ianuarie, Joi

    Timp Temperatura Precipitaţii Vânt Presiune Umiditate
    00:00 -3°C° 0 mm 2 m/s 766 mmHg 79%
    01:00 -3°C° 0 mm 2 m/s 767 mmHg 82%
    02:00 -3°C° 0 mm 2 m/s 767 mmHg 82%
    03:00 -3°C° 0 mm 2 m/s 767 mmHg 81%
    04:00 -3°C° 0 mm 2 m/s 767 mmHg 81%
    05:00 -3°C° 0 mm 2 m/s 768 mmHg 80%
    06:00 -1°C° 0 mm 1 m/s 768 mmHg 79%
    07:00 -1°C° 0 mm 1 m/s 769 mmHg 77%
    08:00 0°C° 0 mm 1 m/s 770 mmHg 71%
    09:00 +2°C° 0 mm 1 m/s 770 mmHg 66%
    10:00 +3°C° 0 mm 1 m/s 770 mmHg 60%
    11:00 +4°C° 0 mm 1 m/s 770 mmHg 57%
    12:00 +4°C° 0 mm 2 m/s 770 mmHg 54%
    13:00 +5°C° 0 mm 2 m/s 770 mmHg 54%
    14:00 +4°C° 0 mm 2 m/s 769 mmHg 58%
    15:00 +3°C° 0 mm 2 m/s 769 mmHg 62%
    16:00 +3°C° 0 mm 1 m/s 769 mmHg 65%
    17:00 +2°C° 0 mm 1 m/s 769 mmHg 69%
    18:00 +2°C° 0 mm 1 m/s 768 mmHg 73%
    19:00 +1°C° 0 mm 1 m/s 768 mmHg 76%
    20:00 +1°C° 0 mm 1 m/s 768 mmHg 77%
    21:00 +1°C° 0 mm 1 m/s 768 mmHg 77%
    22:00 -2°C° 0 mm 2 m/s 768 mmHg 78%
    23:00 -2°C° 0 mm 2 m/s 768 mmHg 78%

    Mâine, 24 Ianuarie, Vineri

    Timp Temperatura Precipitaţii Vânt Presiune Umiditate
    00:00 -2°C° 0 mm 2 m/s 767 mmHg 78%
    01:00 -2°C° 0 mm 2 m/s 767 mmHg 79%
    02:00 -2°C° 0 mm 2 m/s 767 mmHg 80%
    03:00 -3°C° 0 mm 2 m/s 766 mmHg 82%
    04:00 -3°C° 0 mm 2 m/s 766 mmHg 83%
    05:00 -3°C° 0 mm 2 m/s 765 mmHg 84%
    06:00 -3°C° 0 mm 2 m/s 765 mmHg 85%
    07:00 -3°C° 0 mm 2 m/s 765 mmHg 85%
    08:00 -2°C° 0 mm 2 m/s 765 mmHg 79%
    09:00 -1°C° 0 mm 2 m/s 765 mmHg 72%
    10:00 +1°C° 0 mm 2 m/s 765 mmHg 65%
    11:00 +2°C° 0 mm 2 m/s 764 mmHg 60%
    12:00 +3°C° 0 mm 2 m/s 764 mmHg 55%
    13:00 +4°C° 0 mm 2 m/s 764 mmHg 49%
    14:00 +4°C° 0 mm 2 m/s 763 mmHg 52%
    15:00 +3°C° 0 mm 2 m/s 763 mmHg 55%
    16:00 +2°C° 0 mm 2 m/s 762 mmHg 58%
    17:00 +2°C° 0 mm 2 m/s 762 mmHg 61%
    18:00 +1°C° 0 mm 2 m/s 762 mmHg 64%
    19:00 -1°C° 0 mm 2 m/s 762 mmHg 67%
    20:00 -1°C° 0 mm 2 m/s 762 mmHg 67%
    21:00 -1°C° 0 mm 2 m/s 762 mmHg 67%
    22:00 -1°C° 0 mm 2 m/s 762 mmHg 67%
    23:00 -1°C° 0 mm 2 m/s 762 mmHg 67%

    Poimâine, 25 Ianuarie, Sâmbătă

    Timp Temperatura Precipitaţii Vânt Presiune Umiditate
    00:00 -1°C° 0 mm 2 m/s 762 mmHg 67%
    01:00 -1°C° 0 mm 2 m/s 761 mmHg 68%
    02:00 -1°C° 0 mm 2 m/s 761 mmHg 68%
    03:00 -1°C° 0 mm 2 m/s 761 mmHg 68%
    04:00 -1°C° 0 mm 2 m/s 760 mmHg 69%
    05:00 -1°C° 0 mm 2 m/s 761 mmHg 69%
    06:00 -1°C° 0 mm 2 m/s 761 mmHg 69%
    07:00 -1°C° 0 mm 2 m/s 761 mmHg 70%
    08:00 +1°C° 0 mm 2 m/s 761 mmHg 65%
    09:00 +3°C° 0 mm 2 m/s 761 mmHg 61%
    10:00 +4°C° 0 mm 2 m/s 761 mmHg 56%
    11:00 +4°C° 0 mm 3 m/s 761 mmHg 56%
    12:00 +5°C° 0 mm 3 m/s 761 mmHg 55%
    13:00 +7°C° 0 mm 3 m/s 760 mmHg 55%
    14:00 +6°C° 0 mm 2 m/s 760 mmHg 57%
    15:00 +5°C° 0 mm 2 m/s 760 mmHg 60%
    16:00 +5°C° 0 mm 2 m/s 759 mmHg 62%
    17:00 +4°C° 0 mm 2 m/s 759 mmHg 64%
    18:00 +4°C° 0 mm 2 m/s 759 mmHg 65%
    19:00 +4°C° 0 mm 2 m/s 759 mmHg 67%
    20:00 +4°C° 0 mm 2 m/s 760 mmHg 66%
    21:00 +5°C° 0 mm 1 m/s 760 mmHg 65%
    22:00 +5°C° 0 mm 1 m/s 760 mmHg 64%
    23:00 +5°C° 0.1 mm 1 m/s 760 mmHg 68%

    26 Ianuarie, Duminică

    Timp Temperatura Precipitaţii Vânt Presiune Umiditate
    00:00 +5°C° 0.1 mm 1 m/s 759 mmHg 72%
    01:00 +5°C° 0.1 mm 1 m/s 759 mmHg 76%
    02:00 +5°C° 0.1 mm 1 m/s 759 mmHg 78%
    03:00 +5°C° 0.1 mm 1 m/s 759 mmHg 81%
    04:00 +4°C° 0.1 mm 2 m/s 759 mmHg 84%
    05:00 +4°C° 0 mm 2 m/s 759 mmHg 84%
    06:00 +4°C° 0 mm 2 m/s 759 mmHg 83%
    07:00 +4°C° 0 mm 2 m/s 759 mmHg 83%
    08:00 +5°C° 0 mm 1 m/s 760 mmHg 81%
    09:00 +6°C° 0 mm 1 m/s 760 mmHg 79%
    10:00 +7°C° 0 mm 1 m/s 760 mmHg 76%
    11:00 +7°C° 0.1 mm 1 m/s 760 mmHg 76%
    12:00 +7°C° 0.1 mm 1 m/s 760 mmHg 76%
    13:00 +8°C° 0.1 mm 1 m/s 759 mmHg 76%
    14:00 +8°C° 0 mm 1 m/s 759 mmHg 77%
    15:00 +8°C° 0 mm 1 m/s 759 mmHg 78%
    16:00 +7°C° 0 mm 1 m/s 759 mmHg 79%
    17:00 +7°C° 0 mm 1 m/s 759 mmHg 80%
    18:00 +6°C° 0 mm 2 m/s 759 mmHg 81%
    19:00 +6°C° 0 mm 2 m/s 759 mmHg 83%
    20:00 +6°C° 0 mm 2 m/s 759 mmHg 82%
    21:00 +6°C° 0 mm 2 m/s 759 mmHg 82%
    22:00 +6°C° 0 mm 2 m/s 759 mmHg 82%
    23:00 +6°C° 0 mm 2 m/s 758 mmHg 82%

    27 Ianuarie, Luni

    Timp Temperatura Precipitaţii Vânt Presiune Umiditate
    00:00 +6°C° 0 mm 2 m/s 758 mmHg 83%
    01:00 +7°C° 0 mm 1 m/s 758 mmHg 83%
    02:00 +5°C° 0 mm 2 m/s 758 mmHg 85%
    03:00 +5°C° 0 mm 2 m/s 758 mmHg 86%
    04:00 +5°C° 0 mm 2 m/s 758 mmHg 88%
    05:00 +5°C° 0.1 mm 2 m/s 758 mmHg 89%
    06:00 +5°C° 0.1 mm 2 m/s 758 mmHg 91%
    07:00 +6°C° 0.1 mm 1 m/s 758 mmHg 92%
    08:00 +6°C° 0.2 mm 1 m/s 758 mmHg 91%
    09:00 +6°C° 0.2 mm 1 m/s 758 mmHg 89%
    10:00 +7°C° 0.2 mm 1 m/s 758 mmHg 88%
    11:00 +7°C° 0 mm 1 m/s 758 mmHg 87%
    12:00 +7°C° 0 mm 1 m/s 758 mmHg 85%
    13:00 +7°C° 0 mm 1 m/s 758 mmHg 84%
    14:00 +7°C° 0 mm 1 m/s 758 mmHg 85%
    15:00 +7°C° 0 mm 1 m/s 757 mmHg 87%
    16:00 +7°C° 0 mm 1 m/s 757 mmHg 88%
    17:00 +7°C° 0 mm 1 m/s 758 mmHg 88%
    18:00 +7°C° 0 mm 1 m/s 758 mmHg 89%
    19:00 +6°C° 0 mm 1 m/s 758 mmHg 89%
    20:00 +6°C° 0 mm 1 m/s 758 mmHg 89%
    21:00 +5°C° 0 mm 0 m/s 758 mmHg 89%
    22:00 +5°C° 0 mm 0 m/s 758 mmHg 90%
    23:00 +5°C° 0 mm 1 m/s 758 mmHg 91%

    28 Ianuarie, Marţi

    Timp Temperatura Precipitaţii Vânt Presiune Umiditate
    00:00 +5°C° 0 mm 1 m/s 758 mmHg 92%
    01:00 +3°C° 0 mm 2 m/s 757 mmHg 93%
    02:00 +3°C° 0 mm 2 m/s 757 mmHg 93%
    03:00 +3°C° 0 mm 2 m/s 757 mmHg 94%
    04:00 +3°C° 0 mm 2 m/s 757 mmHg 94%
    05:00 +2°C° 0 mm 3 m/s 756 mmHg 95%
    06:00 +1°C° 0 mm 3 m/s 756 mmHg 95%
    07:00 +1°C° 0 mm 3 m/s 756 mmHg 95%
    08:00 +3°C° 0 mm 4 m/s 756 mmHg 91%
    09:00 +4°C° 0 mm 4 m/s 756 mmHg 88%
    10:00 +5°C° 0 mm 4 m/s 756 mmHg 84%
    11:00 +6°C° 0 mm 5 m/s 755 mmHg 79%
    12:00 +7°C° 0 mm 5 m/s 754 mmHg 75%
    13:00 +8°C° 0 mm 6 m/s 753 mmHg 70%
    14:00 +8°C° 0 mm 5 m/s 753 mmHg 69%
    15:00 +8°C° 0 mm 5 m/s 753 mmHg 68%
    16:00 +8°C° 0 mm 5 m/s 753 mmHg 67%
    17:00 +8°C° 0 mm 5 m/s 753 mmHg 66%
    18:00 +8°C° 0 mm 5 m/s 753 mmHg 66%
    19:00 +8°C° 0 mm 6 m/s 753 mmHg 65%
    20:00 +8°C° 0 mm 6 m/s 753 mmHg 65%
    21:00 +8°C° 0 mm 6 m/s 753 mmHg 65%
    22:00 +8°C° 0 mm 6 m/s 754 mmHg 65%
    23:00 +8°C° 0 mm 6 m/s 753 mmHg 66%
    Arată mai mult